CW7016 Weather Reports


time (UTC)temp
C
wind
direction
speed
KPH
gust
KPH
rain 1hr
cm
rain 24hr
cm
rain mn
cm
humidity
%
barometer
mb
20260505111728 13 149 1.6 1.6 0.00 0.00 0.00 85 1010.0
20260505111242 13 149 0.0 0.0 0.00 0.00 0.00 85 1010.1
20260505110734 12 149 0.0 0.0 0.00 0.00 0.00 85 1010.0
20260505110239 12 149 0.0 0.0 0.00 0.00 0.00 84 1010.0
20260505101742 13 149 0.0 0.0 0.00 0.00 0.00 81 1009.6
20260505101233 13 149 0.0 0.0 0.00 0.00 0.00 81 1009.4
20260505100722 13 149 0.0 0.0 0.00 0.00 0.00 81 1009.4
20260505100236 13 149 0.0 3.2 0.00 0.00 0.00 81 1009.3
20260505095724 13 149 0.0 8.0 0.00 0.00 0.00 81 1009.4
20260505095219 13 149 0.0 8.0 0.00 0.00 0.00 81 1009.3
20260505094737 13 171 1.6 6.4 0.00 0.00 0.00 80 1009.3
20260505094255 13 171 1.6 6.4 0.00 0.00 0.00 80 1009.3
20260505093722 13 171 0.0 3.2 0.00 0.00 0.00 80 1009.2
20260505093238 13 171 0.0 3.2 0.00 0.00 0.00 79 1009.2
20260505092729 13 171 0.0 1.6 0.00 0.00 0.00 78 1009.3
20260505092242 13 171 0.0 3.2 0.00 0.00 0.00 78 1009.1
20260505091732 13 171 0.0 3.2 0.00 0.00 0.00 78 1009.1
20260505091221 13 171 0.0 4.8 0.00 0.00 0.00 78 1009.1
20260505090738 13 171 0.0 6.4 0.00 0.00 0.00 78 1009.1
20260505090245 14 171 1.6 6.4 0.00 0.00 0.00 78 1009.1
20260505085737 14 171 1.6 4.8 0.00 0.00 0.00 79 1009.1
20260505085226 14 171 3.2 4.8 0.00 0.00 0.00 78 1009.2
20260505084739 14 171 1.6 4.8 0.00 0.00 0.00 78 1009.2
20260505084229 14 171 0.0 6.4 0.00 0.00 0.00 78 1009.2
20260505083719 14 171 1.6 6.4 0.00 0.00 0.00 78 1009.2
20260505083237 14 171 0.0 8.0 0.00 0.00 0.00 79 1009.2
20260505082725 14 171 1.6 8.0 0.00 0.00 0.00 79 1009.2
20260505082221 14 171 3.2 8.0 0.00 0.00 0.00 78 1009.3
20260505081738 14 171 4.8 8.0 0.00 0.00 0.00 79 1009.3
20260505081254 14 170 1.6 8.0 0.00 0.00 0.00 79 1009.3
20260505080754 14 170 1.6 8.0 0.00 0.00 0.00 79 1009.3
20260505080221 14 170 0.0 9.7 0.00 0.00 0.00 78 1009.3
20260505075733 14 175 1.6 9.7 0.00 0.00 0.00 78 1009.3
20260505075226 14 214 1.6 6.4 0.00 0.00 0.00 78 1009.3
20260505074759 14 214 3.2 6.4 0.00 0.00 0.00 77 1009.3
20260505074227 14 214 1.6 4.8 0.00 0.00 0.00 77 1009.2
20260505073801 14 214 1.6 8.0 0.00 0.00 0.00 76 1009.2
20260505073232 14 214 1.6 8.0 0.00 0.00 0.00 75 1009.2
20260505072724 14 214 4.8 8.0 0.00 0.00 0.00 75 1009.1
20260505072239 14 214 1.6 8.0 0.00 0.00 0.00 75 1008.9
20260505071726 14 205 3.2 9.7 0.00 0.00 0.00 75 1009.0
20260505071220 14 180 4.8 14.5 0.00 0.00 0.00 75 1008.9
20260505070738 14 191 9.7 14.5 0.00 0.00 0.00 75 1008.9
20260505070222 14 206 8.0 12.9 0.00 0.00 0.00 75 1008.8
20260505065739 14 207 8.0 12.9 0.00 0.00 0.00 74 1008.9
20260505065231 14 202 3.2 11.3 0.00 0.00 0.00 74 1008.8
20260505064742 14 210 3.2 12.9 0.00 0.00 0.00 74 1008.8
20260505064234 14 171 6.4 14.5 0.00 0.00 0.00 74 1008.8
20260505063721 14 152 6.4 14.5 0.00 0.00 0.00 74 1008.9
20260505063234 14 201 6.4 14.5 0.00 0.00 0.00 74 1008.9
20260505062725 15 171 4.8 14.5 0.00 0.00 0.00 73 1008.9
20260505062219 15 143 4.8 14.5 0.00 0.00 0.00 73 1009.0
20260505061737 15 192 4.8 11.3 0.00 0.00 0.00 73 1009.0
20260505061226 15 187 4.8 11.3 0.00 0.00 0.00 73 1009.0
20260505060720 15 207 6.4 12.9 0.00 0.00 0.00 73 1009.1
20260505060236 15 183 8.0 11.3 0.00 0.00 0.00 72 1009.1
20260505055725 15 161 6.4 11.3 0.00 0.00 0.00 72 1009.0
20260505055221 15 181 6.4 14.5 0.00 0.00 0.00 72 1009.0
20260505054737 15 207 9.7 14.5 0.00 0.00 0.00 72 1009.1
20260505054246 15 167 3.2 12.9 0.00 0.00 0.00 71 1009.1
20260505053741 15 219 8.0 17.7 0.00 0.00 0.00 71 1009.1
20260505053227 15 184 9.7 17.7 0.00 0.00 0.00 71 1009.1
20260505052744 15 200 6.4 12.9 0.00 0.00 0.00 71 1009.1
20260505052235 15 189 6.4 16.1 0.00 0.00 0.00 71 1009.1
20260505051723 15 209 6.4 16.1 0.00 0.00 0.00 70 1009.2
20260505051238 15 153 4.8 16.1 0.00 0.00 0.00 70 1009.2
20260505050746 15 215 6.4 16.1 0.00 0.00 0.00 70 1009.2
20260505050239 15 197 8.0 12.9 0.00 0.00 0.00 70 1009.1
20260505041737 16 194 4.8 16.1 0.00 0.00 0.00 69 1009.3
20260505041227 16 229 3.2 16.1 0.00 0.00 0.00 68 1009.3
20260505040802 16 199 9.7 19.3 0.00 0.00 0.00 68 1009.2
20260505040232 16 192 14.5 19.3 0.00 0.00 0.00 68 1009.2
20260505035724 16 162 4.8 14.5 0.00 0.00 0.00 68 1009.2
20260505035237 16 192 6.4 16.1 0.00 0.00 0.00 68 1009.2
20260505034758 16 159 11.3 16.1 0.00 0.00 0.00 67 1009.3
20260505034224 16 207 8.0 16.1 0.00 0.00 0.00 67 1009.2
20260505033740 16 198 6.4 16.1 0.00 0.00 0.00 67 1009.1
20260505033229 16 208 9.7 17.7 0.00 0.00 0.00 67 1009.2
20260505032745 16 163 8.0 17.7 0.00 0.00 0.00 67 1009.4
20260505032235 16 202 11.3 16.1 0.00 0.00 0.00 67 1009.4
20260505031724 16 202 8.0 14.5 0.00 0.00 0.00 66 1009.4
20260505031239 16 159 8.0 22.5 0.00 0.00 0.00 66 1009.4
20260505030734 16 175 12.9 22.5 0.00 0.00 0.00 66 1009.5
20260505030245 16 190 6.4 14.5 0.00 0.00 0.00 66 1009.5
20260505025735 16 196 9.7 12.9 0.00 0.00 0.00 66 1009.5
20260505025226 16 183 4.8 9.7 0.00 0.00 0.00 65 1009.6
20260505024721 16 153 6.4 12.9 0.00 0.00 0.00 65 1009.7
20260505024235 16 189 3.2 12.9 0.00 0.00 0.00 64 1009.6
20260505023745 16 170 3.2 12.9 0.00 0.00 0.00 64 1009.7
20260505023252 16 182 6.4 16.1 0.00 0.00 0.00 63 1009.6
20260505022741 17 184 8.0 16.1 0.00 0.00 0.00 62 1009.6
20260505022231 17 174 6.4 14.5 0.00 0.00 0.00 61 1009.6
20260505021742 17 184 4.8 12.9 0.00 0.00 0.00 61 1009.6
20260505021233 17 232 8.0 14.5 0.00 0.00 0.00 60 1009.7
20260505020724 17 178 9.7 14.5 0.00 0.00 0.00 59 1009.6
20260505020242 17 136 8.0 12.9 0.00 0.00 0.00 58 1009.7
20260505015731 17 150 8.0 19.3 0.00 0.00 0.00 57 1009.6
20260505015305 17 184 8.0 19.3 0.00 0.00 0.00 57 1009.6
20260505014736 17 144 9.7 19.3 0.00 0.00 0.00 56 1009.6
20260505014224 17 194 8.0 14.5 0.00 0.00 0.00 55 1009.5
20260505013742 18 147 9.7 14.5 0.00 0.00 0.00 54 1009.4
20260505013232 18 191 8.0 12.9 0.00 0.00 0.00 53 1009.4
20260505012722 18 192 9.7 16.1 0.00 0.00 0.00 52 1009.4
20260505012236 18 161 11.3 16.1 0.00 0.00 0.00 50 1009.4
20260505011744 18 140 4.8 12.9 0.00 0.00 0.00 49 1009.3
20260505011236 18 143 8.0 12.9 0.00 0.00 0.00 49 1009.2
20260505010745 18 180 8.0 11.3 0.00 0.00 0.00 49 1009.1
20260505010218 18 171 3.2 8.0 0.00 0.00 0.00 48 1008.9
20260505005735 18 177 3.2 9.7 0.00 0.00 0.00 48 1008.9
20260505005243 19 182 6.4 12.9 0.00 0.00 0.00 47 1008.9
20260505004733 19 201 6.4 12.9 0.00 0.00 0.00 47 1008.9
20260505004306 19 213 3.2 9.7 0.00 0.00 0.00 47 1008.9
20260505003757 19 187 3.2 11.3 0.00 0.00 0.00 46 1008.8
20260505003244 20 174 4.8 11.3 0.00 0.00 0.00 46 1008.7
20260505002741 20 203 1.6 11.3 0.00 0.00 0.00 45 1008.7
20260505002230 20 203 3.2 11.3 0.00 0.00 0.00 45 1008.7
20260505001744 20 166 1.6 11.3 0.00 0.00 0.00 44 1008.6
20260505001242 20 166 4.8 12.9 0.00 0.00 0.00 43 1008.6
20260505000732 20 191 4.8 14.5 0.00 0.00 0.00 43 1008.6
20260505000219 20 175 4.8 16.1 0.00 0.00 0.00 43 1008.5
20260504235735 21 188 4.8 16.1 0.00 0.00 0.00 42 1008.5
20260504235224 21 176 3.2 19.3 0.00 0.00 0.00 42 1008.4
20260504234719 21 186 6.4 24.1 0.00 0.00 0.00 41 1008.4
20260504234233 21 181 11.3 24.1 0.00 0.00 0.00 41 1008.3
20260504233721 21 194 9.7 19.3 0.00 0.00 0.00 41 1008.3
20260504233234 21 246 8.0 19.3 0.00 0.00 0.00 40 1008.2
20260504232725 22 205 12.9 22.5 0.00 0.00 0.00 40 1008.2
20260504232240 22 213 12.9 22.5 0.00 0.00 0.00 39 1008.2
20260504231732 22 209 3.2 20.9 0.00 0.00 0.00 38 1008.1
20260504231225 22 192 8.0 20.9 0.00 0.00 0.00 38 1008.1
20260504230740 22 221 9.7 19.3 0.00 0.00 0.00 39 1008.1
20260504230247 23 188 8.0 19.3 0.00 0.00 0.00 38 1008.1
20260504225758 22 214 12.9 24.1 0.00 0.00 0.00 38 1008.1
20260504225228 23 204 4.8 24.1 0.00 0.00 0.00 38 1008.1
20260504224721 23 238 11.3 22.5 0.00 0.00 0.00 38 1008.0
20260504224236 23 214 8.0 19.3 0.00 0.00 0.00 38 1008.0
20260504223723 23 245 9.7 22.5 0.00 0.00 0.00 36 1008.0
20260504223216 23 203 9.7 20.9 0.00 0.00 0.00 37 1008.0
20260504222735 23 161 12.9 25.7 0.00 0.00 0.00 37 1008.1
20260504222244 23 227 9.7 25.7 0.00 0.00 0.00 36 1008.1
20260504221739 23 207 11.3 17.7 0.00 0.00 0.00 37 1008.1
20260504221227 23 147 9.7 20.9 0.00 0.00 0.00 35 1008.1
20260504220801 23 188 6.4 24.1 0.00 0.00 0.00 37 1008.0
20260504220232 23 201 9.7 25.7 0.00 0.00 0.00 36 1008.1
20260504215721 23 157 12.9 25.7 0.00 0.00 0.00 35 1008.2
20260504215235 23 198 12.9 20.9 0.00 0.00 0.00 37 1008.3
20260504214743 23 197 9.7 29.0 0.00 0.00 0.00 36 1008.2
20260504214233 23 213 14.5 22.5 0.00 0.00 0.00 36 1008.3
20260504213723 23 215 16.1 24.1 0.00 0.00 0.00 35 1008.3
20260504213304 23 219 8.0 24.1 0.00 0.00 0.00 35 1008.2
20260504212735 23 204 9.7 17.7 0.00 0.00 0.00 35 1008.2
20260504212223 23 155 9.7 16.1 0.00 0.00 0.00 36 1008.3
20260504211720 23 156 9.7 16.1 0.00 0.00 0.00 35 1008.3
20260504211303 23 189 4.8 20.9 0.00 0.00 0.00 36 1008.4
20260504210733 24 159 12.9 29.0 0.00 0.00 0.00 36 1008.4
20260504210239 24 202 8.0 29.0 0.00 0.00 0.00 35 1008.4
20260504205729 23 162 9.7 32.2 0.00 0.00 0.00 36 1008.3
20260504205240 23 174 19.3 32.2 0.00 0.00 0.00 35 1008.3
20260504204730 23 219 12.9 25.7 0.00 0.00 0.00 35 1008.4
20260504204239 23 194 12.9 29.0 0.00 0.00 0.00 35 1008.3
20260504203736 23 223 14.5 29.0 0.00 0.00 0.00 35 1008.4
20260504203224 23 200 8.0 32.2 0.00 0.00 0.00 35 1008.4
20260504202739 24 202 11.3 32.2 0.00 0.00 0.00 33 1008.4
20260504202228 24 178 14.5 29.0 0.00 0.00 0.00 34 1008.3
20260504201741 24 181 6.4 29.0 0.00 0.00 0.00 37 1008.4
20260504201231 23 219 14.5 29.0 0.00 0.00 0.00 35 1008.3
20260504200741 23 161 12.9 29.0 0.00 0.00 0.00 37 1008.5
20260504200258 23 227 12.9 25.7 0.00 0.00 0.00 34 1008.5
20260504195755 23 183 11.3 17.7 0.00 0.00 0.00 36 1008.5
20260504195223 23 205 12.9 22.5 0.00 0.00 0.00 36 1008.6
20260504194717 23 192 11.3 22.5 0.00 0.00 0.00 34 1008.7
20260504194300 23 224 8.0 29.0 0.00 0.00 0.00 34 1008.7
20260504193756 23 200 6.4 32.2 0.00 0.00 0.00 37 1008.8
20260504193241 23 184 19.3 32.2 0.00 0.00 0.00 34 1008.9
20260504192734 23 205 20.9 25.7 0.00 0.00 0.00 35 1008.8
20260504192242 23 204 12.9 25.7 0.00 0.00 0.00 36 1009.0
20260504191736 23 211 9.7 37.0 0.00 0.00 0.00 35 1009.1
20260504191224 23 286 20.9 37.0 0.00 0.00 0.00 34 1009.1
20260504190739 23 184 14.5 33.8 0.00 0.00 0.00 37 1009.1
20260504190229 23 207 12.9 33.8 0.00 0.00 0.00 35 1009.3
20260504185743 23 194 16.1 22.5 0.00 0.00 0.00 36 1009.4
20260504185233 23 249 14.5 22.5 0.00 0.00 0.00 35 1009.3
20260504184722 23 215 9.7 33.8 0.00 0.00 0.00 35 1009.5
20260504184300 23 163 9.7 33.8 0.00 0.00 0.00 37 1009.5
20260504183732 23 235 11.3 25.7 0.00 0.00 0.00 36 1009.7
20260504183241 23 132 8.0 29.0 0.00 0.00 0.00 37 1009.6
20260504182730 23 253 8.0 29.0 0.00 0.00 0.00 36 1009.8
20260504182242 22 225 14.5 22.5 0.00 0.00 0.00 37 1009.8
20260504181739 22 146 8.0 22.5 0.00 0.00 0.00 36 1009.8
20260504181227 22 212 14.5 24.1 0.00 0.00 0.00 39 1009.9
20260504180719 22 198 16.1 24.1 0.00 0.00 0.00 37 1009.9
20260504180234 22 269 9.7 19.3 0.00 0.00 0.00 39 1010.0
20260504175723 22 189 11.3 24.1 0.00 0.00 0.00 40 1010.1
20260504175236 22 156 12.9 24.1 0.00 0.00 0.00 40 1010.2
20260504174724 22 175 14.5 29.0 0.00 0.00 0.00 39 1010.2
20260504174256 22 187 22.5 29.0 0.00 0.00 0.00 39 1010.3
20260504173727 22 139 11.3 30.6 0.00 0.00 0.00 40 1010.2
20260504173238 22 133 8.0 30.6 0.00 0.00 0.00 39 1010.3
20260504172731 22 244 4.8 22.5 0.00 0.00 0.00 39 1010.4
20260504172239 22 204 12.9 22.5 0.00 0.00 0.00 39 1010.4
20260504171736 22 221 11.3 22.5 0.00 0.00 0.00 40 1010.5
20260504171222 21 157 11.3 19.3 0.00 0.00 0.00 44 1010.5
20260504170738 21 315 9.7 19.3 0.00 0.00 0.00 42 1010.7
20260504170231 21 229 4.8 19.3 0.00 0.00 0.00 41 1010.7
20260504160240 20 202 12.9 25.7 0.00 0.00 0.00 43 1011.8
20260504150738 18 250 9.7 16.1 0.00 0.00 0.00 51 1012.2
20260504150227 18 188 11.3 17.7 0.00 0.00 0.00 54 1012.2
20260504141235 16 309 6.4 29.0 0.00 0.00 0.00 56 1012.3
20260504140726 16 223 9.7 29.0 0.00 0.00 0.00 54 1012.4
20260504140243 16 200 12.9 20.9 0.00 0.00 0.00 53 1012.4
20260504130735 15 236 9.7 30.6 0.00 0.00 0.00 58 1012.9
20260504130242 15 201 16.1 29.0 0.00 0.00 0.00 58 1013.1
20260504120232 12 203 9.7 20.9 0.00 0.00 0.00 70 1013.2